User: anonymous   Login
Location: Asheville, NC
(35.6000°N, 82.5500°W)
Time: 12:12:27
(UTC-04:00)
Language:

CUBESAT XI-V - Orbit

View from above orbital plane
View from above orbital plane
View from above satellite
View from above satellite

Ground track
Ground track

The orbit data is extracted from the following two-line orbital elements,

1 28895U 05043F   18169.91715864 +.00000089 +00000-0 +25817-4 0  9994
2 28895 097.9093 321.3024 0018145 066.4315 293.8792 14.63554163673891
Epoch (UTC): 18 June 2018 22:00:42
Eccentricity: 0.0018145
inclination: 97.9093°
perigee height: 669 km
apogee height: 694 km
right ascension of ascending node: 321.3024°
argument of perigee: 66.4315°
revolutions per day: 14.63554163
mean anomaly at epoch: 293.8792°
orbit number at epoch: 67389

The dashed part of the orbit path shows where the satellite is in the earth's shadow,  

DLR